This is the latest recevied weather packets stored in our database for station/object KC0AFB. If no packets are shown the sender has not sent any weather packets the latest 10 day(s).
| Time | Temp. | Humidity | Pressure | Rain* | Wind** | Luminosity | Snow |
|---|---|---|---|---|---|---|---|
| 1777962230 | 1.67° C | 65% | 1012 hPa | 0 mm | - | 0 W/m² | - |
| 1777961927 | 1.67° C | 66% | 1012.2 hPa | 0 mm | - | 0 W/m² | - |
| 1777961625 | 1.11° C | 66% | 1012.2 hPa | 0 mm | - | 0 W/m² | - |
| 1777961322 | 1.11° C | 67% | 1012 hPa | 0 mm | - | 0 W/m² | - |
| 1777961019 | 0.56° C | 67% | 1011.8 hPa | 0 mm | - | 0 W/m² | - |
| 1777960715 | 0.56° C | 67% | 1012 hPa | 0 mm | - | 0 W/m² | - |
| 1777960411 | 0.56° C | 67% | 1012 hPa | 0 mm | - | 0 W/m² | - |
| 1777960109 | 0.56° C | 66% | 1011.9 hPa | 0 mm | - | 0 W/m² | - |
| 1777959806 | 0.56° C | 67% | 1011.9 hPa | 0 mm | - | 0 W/m² | - |
| 1777959504 | 0° C | 68% | 1012.1 hPa | 0 mm | - | 0 W/m² | - |
| 1777959200 | -0.56° C | 68% | 1012 hPa | 0 mm | - | 0 W/m² | - |
| 1777958897 | 0° C | 67% | 1011.9 hPa | 0 mm | - | 0 W/m² | - |
| 1777958594 | -0.56° C | 67% | 1012 hPa | 0 mm | - | 0 W/m² | - |
| 1777958291 | -0.56° C | 68% | 1011.9 hPa | 0 mm | - | 0 W/m² | - |
| 1777957989 | -0.56° C | 68% | 1011.8 hPa | 0 mm | - | 0 W/m² | - |
| 1777957687 | -0.56° C | 67% | 1011.7 hPa | 0 mm | - | 0 W/m² | - |
| 1777957385 | -0.56° C | 67% | 1011.8 hPa | 0 mm | - | 0 W/m² | - |
| 1777957081 | -0.56° C | 67% | 1011.7 hPa | 0 mm | - | 0 W/m² | - |
| 1777956778 | 0° C | 66% | 1011.7 hPa | 0 mm | - | 0 W/m² | - |
| 1777956474 | 0° C | 66% | 1011.7 hPa | 0 mm | - | 0 W/m² | - |
| 1777956172 | 0° C | 66% | 1011.7 hPa | 0 mm | - | 0 W/m² | - |
| 1777955868 | 0° C | 66% | 1011.8 hPa | 0 mm | - | 0 W/m² | - |
| 1777955564 | 0° C | 64% | 1011.7 hPa | 0 mm | - | 0 W/m² | - |
| 1777955261 | 1.67° C | 61% | 1011.8 hPa | 0 mm | - | 0 W/m² | - |
| 1777954958 | 1.67° C | 61% | 1011.7 hPa | 0 mm | - | 0 W/m² | - |
* Rain latest hour (hover to see other rain measurements)
** Current wind speed in m/s (hover to see current wind gust speed)